SCP
0 0 0 0 0 0 0 0 0 0 0 0 0 0 0 0 -0 0 0 0 0 -0 -0 -0 -0 -0 -0 0 0 0 0 0
0 0 0 0 0 0 0 0 0 0 0 0 0 0 0 0 0 0 0 0 0 -0 0 -0 -0 -0 -0 0 0 0 0 0
0 0 0 0 0 0 0 0 0 0 0 0 0 0 0 0 0 0 0 0 0 0 -0 -0 -0 -0 -0 -0 0 0 0 0
0 0 0 0 0 0 0 0 0 0 0 0 0 0 0 0 0 -0 0 0 0 0 0 -0 -0 -0 -0 -0 0 0 0 0
0 0 0 0 0 0 0 0 0 0 0 0 0 0 0 0 0 0 0 -0 -0 -0 0 0 -0 -0 0 -0 0 0 0 0
0 0 0 0 0 0 0 0 0 0 0 0 0 0 -0 -0 0 0 0 0 -0 -0 -0 -0 -0 -0 -0 -0 -0 0 0 0
0 0 0 0 0 0 0 0 0 0 0 0 0 0 0 -0 0 0 0 -0 0 -0 -0 -0 -0 -0 0 0 -0 0 0 0
0 0 0 0 0 0 0 0 0 0 0 0 0 0 0 0 0 0 -0 -0 0 0 0 -0 -0 0 0 0 0 0 0 0
0 0 0 0 0 0 0 0 0 0 0 0 0 0 0 0 0 0 0 -0 0 0 0 -0 -0 -0 0 0 0 -0 0 0
0 0 0 0 0 0 0 0 0 0 0 0 0 0 0 0 0 0 0 -0 0 0 0 0 -0 -0 0 0 0 0 0 0
0 0 0 0 0 0 0 0 0 0 0 0 0 0 0 0 0 0 0 0 0 0 0 0 0 0 0 0 0 0 0 0
0 0 0 0 0 0 0 0 0 0 0 0 0 0 0 0 0 -0 0 0 0 0 0 0 0 0 0 0 0 0 0 0
0 0 0 0 0 0 0 0 0 0 0 0 0 0 0 0 -0 0 0 0 0 0 0 0 0 0 0 0 0 0 0 0
0 0 0 0 0 0 0 0 0 0 0 0 0 0 0 0 -0 -0 0 0 0 0 0 0 0 0 0 0 0 0 0 0
0 0 0 0 0 0 0 0 0 -0 0 0 0 0 0 0 0 -0 -0 0 0 0 0 0 0 0 0 0 0 0 0 0
0 0 0 0 0 0 0 0 0 -0 -0 -0 -0 0 0 0 0 -0 -0 -0 -0 -0 0 0 0 0 0 0 0 0 0 0
0 0 0 0 0 0 0 0 -0 -0 -0 -0 -0 0 0 0 -0 -0 -0 -0 -0 0 0 0 0 0 0 0 0 0 0 0
0 0 0 0 0 0 0 -0 -0 -0 -0 -0 -0 -0 0 -0 -0 -0 -0 -0 -0 -0 0 0 0 0 0 0 0 0 0 0
0 0 0 0 0 0 0 -0 -0 -0 -0 -0 -0 -0 0 -0 -0 -0 -0 -0 0 -0 0 0 0 0 0 0 0 0 0 0
0 0 0 0 0 0 0 -0 -0 -0 -0 -0 -0 -0 -0 0 -0 -0 -0 0 0 0 0 0 0 0 0 0 0 0 0 0
Wind_Speed_500mb
66 61 77 77 96 99 105 104 105 114 92 97 85 88 93 85 86 88 81 59 63 75 78 73 64 65 67 90 79 107 105 124
68 67 81 75 90 102 113 114 114 104 102 97 94 84 79 83 82 73 71 67 55 66 83 74 63 63 54 73 51 103 107 119
61 87 84 87 102 112 123 124 121 116 112 93 105 81 90 72 70 69 74 71 63 43 64 66 62 59 54 50 88 89 125 111
70 86 83 87 104 113 115 121 122 123 109 110 93 84 81 87 82 78 70 79 74 58 41 66 60 58 53 50 60 75 120 137
84 94 90 88 104 115 120 116 121 119 110 111 103 92 85 79 77 79 65 70 84 81 60 45 60 63 56 53 64 47 116 132
85 92 93 96 109 116 115 120 124 123 116 108 102 95 88 90 76 67 61 69 75 92 95 73 62 69 56 58 47 53 113 110
84 93 93 98 113 119 120 122 123 118 117 107 101 99 93 88 77 63 62 76 75 81 94 100 81 83 72 59 54 94 98 126
82 92 100 104 107 116 119 122 118 113 117 104 100 94 94 88 84 77 78 68 73 75 84 102 101 95 93 71 65 85 83 130
82 91 94 98 103 110 114 116 111 111 114 101 101 100 96 90 83 82 75 71 67 77 74 86 86 94 94 82 74 94 71 131
72 81 90 95 101 107 114 116 107 107 122 108 100 94 89 83 78 74 74 68 66 70 70 54 76 82 91 74 80 85 78 124
69 76 85 92 97 104 110 117 115 123 127 102 86 83 83 80 76 70 65 62 57 64 58 62 56 76 79 68 74 74 90 135
67 75 81 90 98 105 109 112 117 121 121 98 90 91 88 86 81 70 59 47 52 56 53 47 60 66 67 66 73 73 104 126
72 80 81 85 93 102 107 112 117 121 117 100 97 91 80 75 64 62 52 48 49 48 52 50 49 54 60 65 80 79 111 120
72 80 83 85 88 98 104 111 115 118 116 102 98 87 82 70 56 52 47 42 46 43 43 40 42 45 52 62 78 89 112 126
71 77 83 85 86 89 97 103 109 114 113 102 98 96 86 70 53 43 41 54 56 56 52 53 47 44 41 59 72 100 115 119
62 69 77 82 85 88 93 98 104 107 108 101 94 93 91 79 64 47 35 43 35 45 55 56 52 40 34 57 73 106 109 113
57 64 72 77 81 85 87 91 95 101 103 97 91 91 87 87 80 44 41 34 20 26 42 50 44 30 31 46 61 92 96 95
55 59 65 70 76 79 82 84 86 89 93 91 86 88 86 83 82 84 46 34 42 18 25 21 35 24 28 34 46 72 88 95
47 52 59 64 69 74 78 78 79 81 83 84 82 80 80 75 74 70 73 72 65 51 29 2 10 20 35 33 41 66 77 85
42 46 52 59 63 69 72 73 73 76 80 82 81 79 78 78 77 75 71 71 73 73 50 33 29 16 25 32 52 53 53 58
Wind_Direction_500mb
325 325 324 321 322 325 324 325 325 325 319 317 310 305 306 303 290 276 282 296 294 279 283 295 293 285 269 272 265 205 204 198
326 320 325 319 323 324 327 327 328 327 318 320 308 312 305 301 303 283 277 278 292 278 279 286 293 288 268 261 238 207 207 200
320 322 325 324 327 329 331 328 331 325 323 317 316 303 307 305 304 296 275 276 274 289 270 270 279 295 266 256 259 220 208 209
317 324 323 324 327 329 328 327 327 327 320 318 315 306 300 294 288 290 288 269 258 261 283 270 276 283 276 263 248 220 200 201
317 324 325 323 327 330 329 326 325 326 319 317 316 311 306 302 295 289 286 279 262 255 257 269 274 273 280 262 234 256 200 199
320 324 324 325 330 331 328 330 328 327 326 319 314 311 305 304 302 288 285 282 277 258 253 254 259 270 276 264 265 270 206 204
324 325 325 328 333 331 332 330 331 330 326 323 313 311 308 306 304 288 282 284 285 267 255 254 253 258 268 270 271 232 213 203
324 326 329 332 333 332 331 334 333 328 329 321 317 310 306 302 298 293 279 276 282 276 255 250 249 253 262 268 270 225 221 208
325 326 328 332 335 332 335 335 331 330 329 321 318 313 307 302 297 296 289 276 272 277 266 251 250 253 259 264 268 229 238 205
322 325 329 336 336 336 338 338 333 332 332 330 321 319 316 313 310 304 292 277 263 269 271 253 247 251 255 260 260 228 231 205
326 330 337 339 340 338 340 342 338 338 338 334 334 330 326 321 316 311 299 282 266 268 253 244 242 244 253 251 253 229 216 204
331 337 343 343 342 342 343 343 341 342 340 340 343 340 329 321 317 316 307 283 275 273 246 256 247 248 247 239 233 228 209 203
338 341 347 350 345 343 345 345 346 346 343 347 349 337 336 329 326 319 305 287 285 271 252 255 258 251 246 243 215 216 209 211
341 341 349 352 350 346 346 348 346 350 345 351 346 346 343 339 336 338 319 296 281 266 267 270 269 265 253 232 214 213 211 205
342 345 348 351 352 351 350 350 349 353 348 353 348 349 348 348 342 337 347 317 290 279 268 265 269 272 245 223 211 211 214 213
345 346 349 351 354 354 354 354 354 356 351 354 352 349 348 350 349 342 331 347 321 286 280 281 290 271 245 217 210 205 209 210
348 348 351 352 355 356 357 359 360 359 355 357 356 352 351 352 351 4 358 3 322 265 275 275 275 274 256 218 211 208 205 206
349 350 351 355 357 359 0 2 6 5 2 1 5 358 358 359 360 357 3 29 26 316 277 277 267 246 244 214 205 211 204 203
348 350 352 357 0 3 3 6 10 12 12 9 14 10 10 11 8 11 12 12 20 30 24 12 159 201 204 205 199 200 205 208
347 350 354 358 3 7 6 9 14 16 19 17 20 24 24 24 27 28 29 27 28 27 45 59 75 150 183 169 175 177 185 195
Wind_Speed_850mb
66 61 77 77 96 99 105 104 105 114 92 97 85 88 93 85 86 88 81 59 63 75 78 73 64 65 67 90 79 107 105 124
68 67 81 75 90 102 113 114 114 104 102 97 94 84 79 83 82 73 71 67 55 66 83 74 63 63 54 73 51 103 107 119
61 87 84 87 102 112 123 124 121 116 112 93 105 81 90 72 70 69 74 71 63 43 64 66 62 59 54 50 88 89 125 111
70 86 83 87 104 113 115 121 122 123 109 110 93 84 81 87 82 78 70 79 74 58 41 66 60 58 53 50 60 75 120 137
84 94 90 88 104 115 120 116 121 119 110 111 103 92 85 79 77 79 65 70 84 81 60 45 60 63 56 53 64 47 116 132
85 92 93 96 109 116 115 120 124 123 116 108 102 95 88 90 76 67 61 69 75 92 95 73 62 69 56 58 47 53 113 110
84 93 93 98 113 119 120 122 123 118 117 107 101 99 93 88 77 63 62 76 75 81 94 100 81 83 72 59 54 94 98 126
82 92 100 104 107 116 119 122 118 113 117 104 100 94 94 88 84 77 78 68 73 75 84 102 101 95 93 71 65 85 83 130
82 91 94 98 103 110 114 116 111 111 114 101 101 100 96 90 83 82 75 71 67 77 74 86 86 94 94 82 74 94 71 131
72 81 90 95 101 107 114 116 107 107 122 108 100 94 89 83 78 74 74 68 66 70 70 54 76 82 91 74 80 85 78 124
69 76 85 92 97 104 110 117 115 123 127 102 86 83 83 80 76 70 65 62 57 64 58 62 56 76 79 68 74 74 90 135
67 75 81 90 98 105 109 112 117 121 121 98 90 91 88 86 81 70 59 47 52 56 53 47 60 66 67 66 73 73 104 126
72 80 81 85 93 102 107 112 117 121 117 100 97 91 80 75 64 62 52 48 49 48 52 50 49 54 60 65 80 79 111 120
72 80 83 85 88 98 104 111 115 118 116 102 98 87 82 70 56 52 47 42 46 43 43 40 42 45 52 62 78 89 112 126
71 77 83 85 86 89 97 103 109 114 113 102 98 96 86 70 53 43 41 54 56 56 52 53 47 44 41 59 72 100 115 119
62 69 77 82 85 88 93 98 104 107 108 101 94 93 91 79 64 47 35 43 35 45 55 56 52 40 34 57 73 106 109 113
57 64 72 77 81 85 87 91 95 101 103 97 91 91 87 87 80 44 41 34 20 26 42 50 44 30 31 46 61 92 96 95
55 59 65 70 76 79 82 84 86 89 93 91 86 88 86 83 82 84 46 34 42 18 25 21 35 24 28 34 46 72 88 95
47 52 59 64 69 74 78 78 79 81 83 84 82 80 80 75 74 70 73 72 65 51 29 2 10 20 35 33 41 66 77 85
42 46 52 59 63 69 72 73 73 76 80 82 81 79 78 78 77 75 71 71 73 73 50 33 29 16 25 32 52 53 53 58
Wind_Direction_850mb
325 325 324 321 322 325 324 325 325 325 319 317 310 305 306 303 290 276 282 296 294 279 283 295 293 285 269 272 265 205 204 198
326 320 325 319 323 324 327 327 328 327 318 320 308 312 305 301 303 283 277 278 292 278 279 286 293 288 268 261 238 207 207 200
320 322 325 324 327 329 331 328 331 325 323 317 316 303 307 305 304 296 275 276 274 289 270 270 279 295 266 256 259 220 208 209
317 324 323 324 327 329 328 327 327 327 320 318 315 306 300 294 288 290 288 269 258 261 283 270 276 283 276 263 248 220 200 201
317 324 325 323 327 330 329 326 325 326 319 317 316 311 306 302 295 289 286 279 262 255 257 269 274 273 280 262 234 256 200 199
320 324 324 325 330 331 328 330 328 327 326 319 314 311 305 304 302 288 285 282 277 258 253 254 259 270 276 264 265 270 206 204
324 325 325 328 333 331 332 330 331 330 326 323 313 311 308 306 304 288 282 284 285 267 255 254 253 258 268 270 271 232 213 203
324 326 329 332 333 332 331 334 333 328 329 321 317 310 306 302 298 293 279 276 282 276 255 250 249 253 262 268 270 225 221 208
325 326 328 332 335 332 335 335 331 330 329 321 318 313 307 302 297 296 289 276 272 277 266 251 250 253 259 264 268 229 238 205
322 325 329 336 336 336 338 338 333 332 332 330 321 319 316 313 310 304 292 277 263 269 271 253 247 251 255 260 260 228 231 205
326 330 337 339 340 338 340 342 338 338 338 334 334 330 326 321 316 311 299 282 266 268 253 244 242 244 253 251 253 229 216 204
331 337 343 343 342 342 343 343 341 342 340 340 343 340 329 321 317 316 307 283 275 273 246 256 247 248 247 239 233 228 209 203
338 341 347 350 345 343 345 345 346 346 343 347 349 337 336 329 326 319 305 287 285 271 252 255 258 251 246 243 215 216 209 211
341 341 349 352 350 346 346 348 346 350 345 351 346 346 343 339 336 338 319 296 281 266 267 270 269 265 253 232 214 213 211 205
342 345 348 351 352 351 350 350 349 353 348 353 348 349 348 348 342 337 347 317 290 279 268 265 269 272 245 223 211 211 214 213
345 346 349 351 354 354 354 354 354 356 351 354 352 349 348 350 349 342 331 347 321 286 280 281 290 271 245 217 210 205 209 210
348 348 351 352 355 356 357 359 360 359 355 357 356 352 351 352 351 4 358 3 322 265 275 275 275 274 256 218 211 208 205 206
349 350 351 355 357 359 0 2 6 5 2 1 5 358 358 359 360 357 3 29 26 316 277 277 267 246 244 214 205 211 204 203
348 350 352 357 0 3 3 6 10 12 12 9 14 10 10 11 8 11 12 12 20 30 24 12 159 201 204 205 199 200 205 208
347 350 354 358 3 7 6 9 14 16 19 17 20 24 24 24 27 28 29 27 28 27 45 59 75 150 183 169 175 177 185 195